Retour au catalogue

STARLINK-5973

ActifCommunicationsVLEO
NORAD 56916·PAYLOAD·🇺🇸 United States

Lancé Jun 12, 2023 depuis Cape Canaveral Space Force Station

Loading…

Prochains Passages (prochaines 24 heures)

TLE

FraisSource: CelesTrak SupGP

Époque: Sep 14, 2026, 21:07 UTC

1 56916C 23083AS  26257.88034722 -.00087913  00000+0 -31856-2 0  2570
2 56916  43.0010  82.1730 0001111 260.0943  78.5937 15.27608423    14

Suivez STARLINK-5973 en temps réel avec AllMySat

Download on the App Store